When you browse on this site, cookies collect data to enhance your experience and personalize the content and advertising you see.
Visit our Privacy Policy to learn more. By continuing to use the site, you agree to this use of cookies and data.
  • In Portugal
  • List of Countries
  • For 7 days
  • Water Temperature
  • Satellite Maps
  • Weather Map
  • Weather Widgets
  • user-avatar
    Login

    Hourly Weather Sliven

    Today, 21 April, Sunday

    Time Temperature Precipitation Wind Pressure Humidity
    00:00 +4°C° 0 mm 2 mps 739 mmHg 71%
    01:00 +3°C° 0 mm 2 mps 739 mmHg 71%
    02:00 +3°C° 0 mm 2 mps 739 mmHg 71%
    03:00 +3°C° 0 mm 2 mps 739 mmHg 71%
    04:00 +3°C° 0 mm 2 mps 739 mmHg 70%
    05:00 +3°C° 0 mm 2 mps 738 mmHg 70%
    06:00 +5°C° 0 mm 2 mps 738 mmHg 65%
    07:00 +8°C° 0 mm 1 mps 738 mmHg 60%
    08:00 +10°C° 0 mm 1 mps 738 mmHg 55%
    09:00 +12°C° 0 mm 1 mps 738 mmHg 52%
    10:00 +13°C° 0 mm 1 mps 738 mmHg 48%
    11:00 +15°C° 0 mm 1 mps 738 mmHg 45%
    12:00 +15°C° 0.1 mm 1 mps 738 mmHg 47%
    13:00 +14°C° 0.1 mm 1 mps 737 mmHg 49%
    14:00 +14°C° 0.1 mm 1 mps 737 mmHg 51%
    15:00 +14°C° 0.1 mm 1 mps 737 mmHg 53%
    16:00 +14°C° 0.1 mm 1 mps 736 mmHg 55%
    17:00 +14°C° 0.1 mm 1 mps 736 mmHg 58%
    18:00 +12°C° 0.1 mm 1 mps 736 mmHg 64%
    19:00 +10°C° 0.1 mm 1 mps 736 mmHg 71%
    20:00 +9°C° 0.1 mm 1 mps 736 mmHg 77%
    21:00 +8°C° 0 mm 1 mps 736 mmHg 79%
    22:00 +8°C° 0 mm 1 mps 736 mmHg 80%
    23:00 +7°C° 0 mm 1 mps 736 mmHg 82%

    Tomorrow, 22 April, Monday

    Time Temperature Precipitation Wind Pressure Humidity
    00:00 +7°C° 0 mm 1 mps 736 mmHg 83%
    01:00 +6°C° 0 mm 1 mps 736 mmHg 85%
    02:00 +5°C° 0 mm 0 mps 735 mmHg 86%
    03:00 +4°C° 0 mm 0 mps 735 mmHg 87%
    04:00 +4°C° 0 mm 0 mps 735 mmHg 87%
    05:00 +4°C° 0 mm 0 mps 735 mmHg 87%
    06:00 +7°C° 0 mm 1 mps 735 mmHg 83%
    07:00 +8°C° 0 mm 1 mps 735 mmHg 79%
    08:00 +10°C° 0 mm 1 mps 735 mmHg 75%
    09:00 +12°C° 0 mm 2 mps 735 mmHg 70%
    10:00 +13°C° 0 mm 2 mps 735 mmHg 65%
    11:00 +14°C° 0 mm 3 mps 735 mmHg 60%
    12:00 +16°C° 0 mm 3 mps 735 mmHg 59%
    13:00 +15°C° 0 mm 4 mps 735 mmHg 57%
    14:00 +17°C° 0 mm 4 mps 735 mmHg 56%
    15:00 +17°C° 0.1 mm 4 mps 735 mmHg 59%
    16:00 +15°C° 0.1 mm 4 mps 735 mmHg 62%
    17:00 +15°C° 0.1 mm 4 mps 735 mmHg 65%
    18:00 +13°C° 0.1 mm 4 mps 735 mmHg 72%
    19:00 +11°C° 0.1 mm 4 mps 735 mmHg 79%
    20:00 +8°C° 0.1 mm 4 mps 735 mmHg 86%
    21:00 +8°C° 0 mm 3 mps 735 mmHg 86%
    22:00 +7°C° 0 mm 3 mps 735 mmHg 85%
    23:00 +5°C° 0 mm 3 mps 735 mmHg 85%

    Day after tomorrow, 23 April, Tuesday

    Time Temperature Precipitation Wind Pressure Humidity
    00:00 +4°C° 0 mm 3 mps 736 mmHg 84%
    01:00 +4°C° 0 mm 3 mps 736 mmHg 83%
    02:00 +5°C° 0 mm 2 mps 736 mmHg 83%
    03:00 +5°C° 0 mm 2 mps 736 mmHg 81%
    04:00 +5°C° 0 mm 2 mps 736 mmHg 79%
    05:00 +5°C° 0 mm 2 mps 736 mmHg 77%
    06:00 +6°C° 0.1 mm 2 mps 736 mmHg 76%
    07:00 +6°C° 0.1 mm 2 mps 737 mmHg 76%
    08:00 +7°C° 0.1 mm 2 mps 737 mmHg 76%
    09:00 +7°C° 0.3 mm 3 mps 737 mmHg 74%
    10:00 +8°C° 0.3 mm 3 mps 737 mmHg 72%
    11:00 +9°C° 0.3 mm 3 mps 737 mmHg 70%
    12:00 +10°C° 0.1 mm 4 mps 737 mmHg 67%
    13:00 +11°C° 0.1 mm 4 mps 737 mmHg 64%
    14:00 +13°C° 0.1 mm 5 mps 737 mmHg 60%
    15:00 +13°C° 0 mm 5 mps 736 mmHg 62%
    16:00 +13°C° 0 mm 4 mps 736 mmHg 63%
    17:00 +13°C° 0 mm 4 mps 736 mmHg 65%
    18:00 +11°C° 0 mm 4 mps 736 mmHg 71%
    19:00 +10°C° 0 mm 4 mps 736 mmHg 77%
    20:00 +8°C° 0 mm 3 mps 736 mmHg 82%
    21:00 +8°C° 0 mm 3 mps 736 mmHg 83%
    22:00 +7°C° 0 mm 3 mps 736 mmHg 84%
    23:00 +7°C° 0 mm 2 mps 736 mmHg 84%

    24 April, Wednesday

    Time Temperature Precipitation Wind Pressure Humidity
    00:00 +6°C° 0 mm 2 mps 736 mmHg 84%
    01:00 +6°C° 0 mm 2 mps 736 mmHg 84%
    02:00 +7°C° 0 mm 1 mps 736 mmHg 84%
    03:00 +7°C° 0 mm 1 mps 736 mmHg 84%
    04:00 +6°C° 0 mm 1 mps 736 mmHg 84%
    05:00 +6°C° 0 mm 1 mps 736 mmHg 84%
    06:00 +8°C° 0 mm 1 mps 737 mmHg 78%
    07:00 +10°C° 0 mm 1 mps 737 mmHg 72%
    08:00 +12°C° 0 mm 1 mps 738 mmHg 66%
    09:00 +14°C° 0 mm 1 mps 738 mmHg 63%
    10:00 +16°C° 0 mm 2 mps 738 mmHg 60%
    11:00 +18°C° 0 mm 2 mps 739 mmHg 57%
    12:00 +19°C° 0 mm 2 mps 738 mmHg 56%
    13:00 +19°C° 0 mm 2 mps 738 mmHg 55%
    14:00 +20°C° 0 mm 2 mps 738 mmHg 55%
    15:00 +20°C° 0 mm 2 mps 738 mmHg 58%
    16:00 +20°C° 0 mm 3 mps 738 mmHg 61%
    17:00 +20°C° 0 mm 3 mps 737 mmHg 64%
    18:00 +17°C° 0 mm 3 mps 737 mmHg 73%
    19:00 +13°C° 0 mm 3 mps 737 mmHg 82%
    20:00 +11°C° 0 mm 3 mps 737 mmHg 91%
    21:00 +10°C° 0 mm 3 mps 738 mmHg 91%
    22:00 +9°C° 0 mm 2 mps 738 mmHg 90%
    23:00 +9°C° 0 mm 2 mps 738 mmHg 89%

    25 April, Thursday

    Time Temperature Precipitation Wind Pressure Humidity
    00:00 +8°C° 0 mm 2 mps 738 mmHg 90%
    01:00 +8°C° 0 mm 2 mps 738 mmHg 91%
    02:00 +9°C° 0 mm 1 mps 738 mmHg 92%
    03:00 +9°C° 0 mm 1 mps 738 mmHg 93%
    04:00 +9°C° 0 mm 1 mps 738 mmHg 93%
    05:00 +9°C° 0 mm 1 mps 738 mmHg 94%
    06:00 +10°C° 0 mm 1 mps 738 mmHg 88%
    07:00 +12°C° 0 mm 1 mps 739 mmHg 82%
    08:00 +14°C° 0 mm 2 mps 739 mmHg 76%
    09:00 +16°C° 0 mm 2 mps 739 mmHg 70%
    10:00 +18°C° 0 mm 2 mps 739 mmHg 65%
    11:00 +19°C° 0 mm 2 mps 739 mmHg 59%
    12:00 +20°C° 0 mm 2 mps 739 mmHg 58%
    13:00 +21°C° 0 mm 2 mps 739 mmHg 56%
    14:00 +22°C° 0 mm 3 mps 739 mmHg 55%
    15:00 +21°C° 0 mm 3 mps 738 mmHg 59%
    16:00 +20°C° 0 mm 3 mps 738 mmHg 63%
    17:00 +19°C° 0 mm 4 mps 738 mmHg 67%
    18:00 +17°C° 0 mm 3 mps 738 mmHg 74%
    19:00 +13°C° 0 mm 3 mps 737 mmHg 81%
    20:00 +10°C° 0 mm 2 mps 737 mmHg 88%
    21:00 +10°C° 0 mm 2 mps 737 mmHg 87%
    22:00 +9°C° 0 mm 2 mps 737 mmHg 86%
    23:00 +9°C° 0 mm 2 mps 737 mmHg 85%

    26 April, Friday

    Time Temperature Precipitation Wind Pressure Humidity
    00:00 +10°C° 0 mm 1 mps 737 mmHg 82%
    01:00 +10°C° 0 mm 1 mps 737 mmHg 80%
    02:00 +10°C° 0 mm 1 mps 736 mmHg 77%
    03:00 +10°C° 0 mm 1 mps 736 mmHg 76%
    04:00 +10°C° 0 mm 1 mps 736 mmHg 76%
    05:00 +9°C° 0 mm 1 mps 736 mmHg 75%
    06:00 +11°C° 0 mm 1 mps 736 mmHg 72%
    07:00 +12°C° 0 mm 2 mps 736 mmHg 68%
    08:00 +13°C° 0 mm 2 mps 736 mmHg 65%
    09:00 +15°C° 0 mm 2 mps 736 mmHg 61%
    10:00 +17°C° 0 mm 2 mps 736 mmHg 57%
    11:00 +18°C° 0 mm 2 mps 736 mmHg 52%
    12:00 +19°C° 0 mm 2 mps 736 mmHg 52%
    13:00 +20°C° 0 mm 3 mps 735 mmHg 51%
    14:00 +21°C° 0 mm 3 mps 735 mmHg 50%
    15:00 +20°C° 0 mm 3 mps 734 mmHg 54%
    16:00 +19°C° 0 mm 3 mps 734 mmHg 57%
    17:00 +19°C° 0 mm 3 mps 734 mmHg 61%
    18:00 +16°C° 0 mm 3 mps 733 mmHg 67%
    19:00 +13°C° 0 mm 3 mps 733 mmHg 74%
    20:00 +10°C° 0 mm 2 mps 733 mmHg 80%
    21:00 +10°C° 0 mm 2 mps 733 mmHg 78%
    22:00 +9°C° 0 mm 2 mps 733 mmHg 76%
    23:00 +10°C° 0 mm 1 mps 733 mmHg 74%
    Show more